Regional Weather Roundup
Issued by NWS

Home | Current Version | Previous Version | Graphics & Text | Print | Product List | Glossary On
Versions: 1 2 3 4 5 6 7 8 9 10 11 12 13 14 15 16 17 18 19 20 21 22 23 24 25 26 27 28 29 30 31 32 33 34 35 36 37 38 39 40 41 42 43 44 45 46 47 48 49 50
000
ASUS43 KLSX 221107
RWRMO

WEATHER SUMMARY FOR MISSOURI
NATIONAL WEATHER SERVICE SPRINGFIELD MO
500 AM CST MON JAN 22 2018

NOTE: "FAIR" INDICATES FEW OR NO CLOUDS BELOW 12,000 FEET WITH NO
       SIGNIFICANT WEATHER AND/OR OBSTRUCTIONS TO VISIBILITY.
       CURRENT SKY AND/OR WEATHER CONDITIONS ARE NOT AVAILABLE FOR
       CHILLICOTHE AND FARMINGTON.

MOZ001>031-035>038-043-044-053-054-221200-
...NORTHERN AND WESTERN MISSOURI...

CITY           SKY/WX    TMP DP  RH WIND       PRES   REMARKS
KANSAS CTY INT CLOUDY    43  41  93 SW13      29.43R
KANSAS C DTWN  PTCLDY    44  40  85 SW15      29.45R
LEE`S SUMMIT   PTCLDY    45  42  89 SW22G29   29.45R
ST JOSEPH      CLOUDY    41  41 100 CALM      29.41F FOG
CHILLICOTHE      N/A     52  50  93 S8        29.42F
KIRKSVILLE     CLOUDY    51  51 100 SE13      29.46F

$$
MOZ066>068-077>081-088>096-101>105-221200-
...SOUTHWEST MISSOURI...

CITY           SKY/WX    TMP DP  RH WIND       PRES   REMARKS
SPRINGFIELD    CLEAR     47  38  71 S12       29.58R
JOPLIN         CLEAR     41  33  73 SW18G28   29.61R

$$
MOZ032>034-039>042-045>050-055>058-069>072-221200-
...CENTRAL MISSOURI...

CITY           SKY/WX    TMP DP  RH WIND       PRES   REMARKS
COLUMBIA       MOCLDY    54  32  43 S13       29.51F
JEFFERSON CITY CLOUDY    54  52  93 S10       29.53F
ROLLA          CLOUDY    52  52 100 S10       29.58F
SEDALIA        CLEAR     51  45  79 S13       29.50F
WHITEMAN AFB   PTCLDY    45  38  77 SW13      29.44R
WARRENSBURG    CLEAR     46  34  61 S13G18    29.47R
OSAGE BEACH    CLOUDY    51  49  92 S8        29.57R

$$
MOZ051-052-059>065-221200-
...EAST CENTRAL MISSOURI...

CITY           SKY/WX    TMP DP  RH WIND       PRES   REMARKS
ST LOUIS INTL  LGT RAIN  55  54  96 S9        29.60F
SPIRIT OF STL  MOCLDY    55  55 100 S6        29.59F
ST CHARLES     CLOUDY    54  54 100 S13       29.58F

$$
MOZ072>076-082>087-097>100-106>115-221200-
...SOUTH CENTRAL AND SOUTHEAST MISSOURI...

CITY           SKY/WX    TMP DP  RH WIND       PRES   REMARKS
CAPE GIRARDEAU RAIN      55  51  86 S15G29    29.70S FOG
FARMINGTON     CLOUDY    53  52  96 S8        29.65F
POPLAR BLUFF   LGT RAIN  56  55  97 SW10      29.69F FOG
WEST PLAINS    PTCLDY    50  47  89 S8        29.66R

$$



USA.gov is the U.S. government's official web portal to all federal, state and local government web resources and services.